Location: Champignolles
(47.0543°N, 4.5663°E)
Time: 23:55:43
(UTC+00:00)

N. Korean satellite - Pass Details

Date: 11 December 2021
Orbit: 447 x 491 km, 97.3° (Epoch: 21 January)

Event Time Altitude Azimuth Distance (km) Brightness Sun altitude
Rises 04:36:35 0° 19° (NNE) 2,461 10.3 -26.4°
Reaches altitude 10° 04:38:43 10° 27° (NNE) 1,584 9.4 -26.0°
Enters shadow 04:38:43 10° 27° (NNE) 1,582 9.4 -26.0°
Exits shadow 04:42:49 32° 136° (SE) 797 8.0 -25.3°
Drops below altitude 10° 04:45:06 10° 169° (S) 1,577 9.3 -24.9°
Sets 04:47:13 0° 177° (S) 2,448 10.3 -24.6°
